Weather History for Owosso, MI

Change the Weather History Date:

Saturday, November 10, 2012

  Actual Average (KFNT) Record (KFNT)
Temperature  
Mean Temperature 55 °F 41 °F  
Max Temperature 62 °F 49 °F 68 °F (1999)
Min Temperature 48 °F 33 °F 17 °F (2003)
Degree Days  
Heating Degree Days 10 24  
Month to date heating degree days 223  
Since 1 July heating degree days 919  
Cooling Degree Days 0 0  
Month to date cooling degree days 0  
Year to date cooling degree days 531  
Growing Degree Days 5 (Base 50)    
Moisture  
Dew Point 47 °F    
Average Humidity 73    
Maximum Humidity 89    
Minimum Humidity 57    
Precipitation  
Precipitation 0.00 in 0.09 in 0.98 in (1995)
Month to date precipitation 0.90  
Year to date precipitation 27.68  
Snow  
Snow 0.00 in 0.10 in T in (2011)
Month to date snowfall 0.3  
Since 1 July snowfall 0.7  
Since 1 September snowfall 0.7  
Snow Depth -    
Sea Level Pressure  
Sea Level Pressure 30.05 in    
Wind  
Wind Speed 5 mph (SE)    
Max Wind Speed 12 mph    
Max Gust Speed 18 mph    
Visibility 8 miles    
Events      
T = Trace of Precipitation, MM = Missing Value Source: NWS Daily Summary

Daily Weather History Graph

Daily Weather History Graph

Search for Another Location

Airport:

Trip Planner

Search our weather history database for the weather conditions in past years. The results will help you decide how hot, cold, wet, or windy it might be!

Date:

Astronomy

Nov. 10, 2012 Rise Set
Actual Time 7:23 AM EST 5:17 PM EST
Civil Twilight 6:52 AM EST 5:47 PM EST
Nautical Twilight 6:18 AM EST 6:21 PM EST
Astronomical Twilight 5:45 AM EST 6:54 PM EST
Moon 3:22 AM EST (11/10) 3:07 PM EST (11/10)
Length of Visible Light 10h 54m
Length of Day
9h 54m
Waning Crescent, 14% of the Moon is Illuminated
Nov 10
Waning Crescent
Nov 13
New
Nov 20
First Quarter
Nov 28
Full
Dec 6
Last Quarter

Hourly Weather History & Observations

Time (EST) Temp. Dew Point Humidity Pressure Visibility Wind Dir Wind Speed Gust Speed Precip Events Conditions
12:15 AM 49.3 °F 41.9 °F 76% 30.10 in 7.0 mi ESE 4.6 mph - N/A   Overcast
12:35 AM 49.1 °F 41.9 °F 76% 30.10 in 7.0 mi ESE 3.5 mph - N/A   Overcast
12:55 AM 49.1 °F 42.1 °F 77% 30.10 in 7.0 mi ESE 3.5 mph - N/A   Overcast
1:15 AM 49.6 °F 42.1 °F 75% 30.09 in 7.0 mi SE 4.6 mph - N/A   Overcast
1:35 AM 49.6 °F 42.8 °F 77% 30.09 in 7.0 mi SE 4.6 mph - N/A   Overcast
1:55 AM 49.3 °F 43.0 °F 79% 30.09 in 7.0 mi ESE 4.6 mph - N/A   Overcast
2:15 AM 49.5 °F 43.2 °F 79% 30.09 in 7.0 mi SSE 4.6 mph - N/A   Overcast
2:35 AM 49.5 °F 43.7 °F 81% 30.09 in 7.0 mi SE 3.5 mph - N/A   Overcast
3:15 AM 49.1 °F 43.7 °F 82% 30.10 in 7.0 mi East 3.5 mph - N/A   Overcast
3:35 AM 49.1 °F 44.1 °F 83% 30.10 in 7.0 mi SE 3.5 mph - N/A   Overcast
3:55 AM 49.1 °F 44.2 °F 83% 30.09 in 7.0 mi ESE 3.5 mph - N/A   Overcast
4:15 AM 49.1 °F 44.4 °F 84% 30.10 in 5.0 mi Calm Calm - N/A   Haze
4:35 AM 49.1 °F 44.6 °F 84% 30.10 in 5.0 mi SE 3.5 mph - N/A   Overcast
4:55 AM 49.1 °F 44.6 °F 84% 30.10 in 5.0 mi SE 4.6 mph - N/A   Overcast
5:15 AM 49.3 °F 44.8 °F 84% 30.10 in 5.0 mi ESE 4.6 mph - N/A   Overcast
5:35 AM 49.1 °F 45.0 °F 86% 30.10 in 5.0 mi Calm Calm - N/A   Overcast
5:55 AM 49.1 °F 45.0 °F 86% 30.10 in 5.0 mi ESE 3.5 mph - N/A   Overcast
6:15 AM 49.1 °F 45.0 °F 86% 30.10 in 5.0 mi East 4.6 mph - N/A   Overcast
6:35 AM 48.7 °F 45.0 °F 87% 30.09 in 5.0 mi East 4.6 mph - N/A   Overcast
6:55 AM 48.7 °F 45.1 °F 87% 30.09 in 5.0 mi ESE 3.5 mph - N/A   Overcast
7:34 AM 48.7 °F 45.1 °F 87% 30.11 in 5.0 mi Calm Calm - N/A   Overcast
7:55 AM 48.6 °F 45.5 °F 89% 30.11 in 4.0 mi ESE 3.5 mph - N/A   Overcast
8:15 AM 49.3 °F 45.5 °F 87% 30.11 in 4.0 mi ESE 3.5 mph - N/A   Overcast
8:35 AM 50.0 °F 45.7 °F 85% 30.11 in 5.0 mi ESE 4.6 mph - N/A   Overcast
8:55 AM 50.9 °F 45.7 °F 82% 30.11 in 5.0 mi ESE 5.8 mph - N/A   Haze
9:14 AM 51.3 °F 45.7 °F 81% 30.10 in 5.0 mi ESE 5.8 mph - N/A   Haze
9:35 AM 51.8 °F 45.5 °F 79% 30.11 in 5.0 mi SE 6.9 mph - N/A   Haze
9:55 AM 52.2 °F 45.7 °F 79% 30.11 in 7.0 mi SE 5.8 mph - N/A   Overcast
10:15 AM 52.7 °F 45.5 °F 76% 30.10 in 7.0 mi SE 6.9 mph - N/A   Overcast
10:35 AM 53.2 °F 45.9 °F 76% 30.09 in 7.0 mi SE 9.2 mph - N/A   Overcast
10:55 AM 53.6 °F 45.7 °F 75% 30.08 in 7.0 mi SE 6.9 mph - N/A   Overcast
11:15 AM 55.0 °F 46.0 °F 72% 30.08 in 7.0 mi SSE 6.9 mph - N/A   Overcast
11:35 AM 56.1 °F 46.2 °F 69% 30.06 in 10.0 mi SSE 6.9 mph - N/A   Overcast
11:55 AM 57.2 °F 46.0 °F 66% 30.06 in 10.0 mi SSE 8.1 mph - N/A   Overcast
12:15 PM 57.2 °F 46.4 °F 67% 30.04 in 10.0 mi SE 8.1 mph - N/A   Overcast
12:35 PM 57.7 °F 46.6 °F 66% 30.04 in 10.0 mi SE 5.8 mph - N/A   Overcast
12:55 PM 59.2 °F 46.8 °F 63% 30.04 in 10.0 mi SE 6.9 mph - N/A   Overcast
1:15 PM 59.5 °F 47.1 °F 63% 30.04 in 10.0 mi SE 3.5 mph - N/A   Overcast
1:34 PM 60.4 °F 47.8 °F 63% 30.03 in 10.0 mi SSE 5.8 mph - N/A   Overcast
1:55 PM 61.2 °F 48.2 °F 62% 30.02 in 10.0 mi SE 8.1 mph - N/A   Overcast
2:15 PM 61.0 °F 48.4 °F 63% 30.01 in 10.0 mi SE 8.1 mph - N/A   Overcast
2:34 PM 61.0 °F 48.9 °F 64% 30.01 in 10.0 mi SE 8.1 mph - N/A   Overcast
2:55 PM 60.8 °F 49.1 °F 65% 30.02 in 10.0 mi SE 5.8 mph - N/A   Overcast
3:15 PM 61.3 °F 49.3 °F 65% 30.01 in 10.0 mi ESE 5.8 mph - N/A   Overcast
3:35 PM 61.5 °F 49.1 °F 64% 30.00 in 10.0 mi SE 11.5 mph - N/A   Scattered Clouds
3:55 PM 61.0 °F 49.3 °F 65% 30.00 in 10.0 mi SE 5.8 mph - N/A   Clear
4:15 PM 60.8 °F 49.3 °F 66% 29.99 in 10.0 mi SE 10.4 mph - N/A   Scattered Clouds
4:35 PM 60.1 °F 49.1 °F 67% 29.99 in 10.0 mi SE 8.1 mph - N/A   Scattered Clouds
4:55 PM 59.9 °F 48.7 °F 67% 29.99 in 10.0 mi SE 6.9 mph - N/A   Clear
5:15 PM 59.4 °F 48.7 °F 68% 30.00 in 10.0 mi SE 6.9 mph - N/A   Scattered Clouds
5:35 PM 59.0 °F 49.1 °F 70% 29.99 in 10.0 mi SE 8.1 mph - N/A   Clear
5:55 PM 59.5 °F 49.1 °F 68% 29.98 in 10.0 mi SE 8.1 mph - N/A   Clear
6:15 PM 60.1 °F 49.3 °F 67% 29.98 in 10.0 mi SE 10.4 mph - N/A   Clear
6:35 PM 60.3 °F 49.3 °F 67% 29.98 in 10.0 mi SE 10.4 mph 16.1 mph N/A   Clear
6:55 PM 60.8 °F 49.1 °F 65% 29.97 in 10.0 mi SE 11.5 mph - N/A   Scattered Clouds
7:15 PM 60.1 °F 49.1 °F 67% 29.98 in 10.0 mi SSE 9.2 mph - N/A   Scattered Clouds
7:35 PM 60.1 °F 49.1 °F 67% 30.00 in 10.0 mi South 8.1 mph 17.3 mph N/A   Clear
7:54 PM 59.4 °F 49.3 °F 69% 30.00 in 10.0 mi SSE 6.9 mph - N/A   Clear
8:15 PM 59.2 °F 49.3 °F 70% 29.99 in 10.0 mi SSE 6.9 mph - N/A   Clear
8:35 PM 59.0 °F 49.5 °F 71% 29.99 in 10.0 mi SSE 8.1 mph - N/A   Clear
8:55 PM 59.0 °F 49.6 °F 71% 29.99 in 10.0 mi South 6.9 mph - N/A   Clear
9:15 PM 59.4 °F 49.8 °F 71% 29.99 in 10.0 mi South 6.9 mph - N/A   Clear
9:35 PM 60.4 °F 50.0 °F 68% 29.98 in 10.0 mi SSE 9.2 mph - N/A   Clear
9:55 PM 61.0 °F 49.6 °F 66% 29.97 in 10.0 mi SSE 9.2 mph - N/A   Clear
10:35 PM 62.1 °F 48.6 °F 61% 29.98 in 10.0 mi South 10.4 mph - N/A   Clear
10:55 PM 62.4 °F 48.2 °F 60% 29.97 in 10.0 mi South 11.5 mph 18.4 mph N/A   Clear
11:15 PM 61.9 °F 47.7 °F 60% 29.97 in 10.0 mi South 9.2 mph - N/A   Clear
11:34 PM 61.5 °F 47.3 °F 60% 29.98 in 10.0 mi SSW 10.4 mph - N/A   Scattered Clouds
11:55 PM 62.1 °F 46.6 °F 57% 29.98 in 10.0 mi South 11.5 mph - N/A   Clear